Home   Weather   St. Paul   Past weeks

Flag for USA Past Weather in St. Paul, Minnesota, USA — Yesterday and Last 2 Weeks

Now
66 °F

Sunny.


Feels Like: 66 °F
Forecast: 56 / 70 °F
Wind: 7 mph from Northeast

Location: St. Paul Downtown Holman Field

Current Time: Oct 1, 2016 at 12:14:30 PM

Latest Report: Oct 1, 2016 at 11:53 AM


Visibility: 10 mi

Pressure: 30.14 "Hg

Humidity: 68%

Dew Point: 55 °F

Location of St. PaulLocation

Past Weather in St. Paul — Graph

°F

St. Paul Temperature Yesterday

Maximum temperature yesterday: 71 °F (at 3:53 PM)
Minimum temperature yesterday: 49 °F (at 5:53 AM)
Average temperature yesterday: 60 °F

High & Low Weather Summary for the Past Weeks

 TemperatureHumidityPressure
High81 °F (Sep 18, 2:53 PM)97% (Sep 17, 1:53 AM)30.49 "Hg (Sep 17, 1:53 AM)
Low47 °F (Sep 29, 6:53 AM)31% (Sep 26, 4:53 PM)29.73 "Hg (Sep 18, 3:53 PM)
Average62 °F77%30.03 "Hg
* Reported Sep 16 10:53 AM — Oct 1 10:53 AM, St. Paul, Weather by CustomWeather, © 2016

Note: Actual official high and low records may vary slightly from our data, if they occured in-between our weather recording intervals... More about our weather records

Advertising

St. Paul Weather History for the Previous 24 Hours

Scroll right to see more
 ConditionsComfort  
Time TempWeatherWind HumidityBarometerVisibility
10:53 AM
Sat, Oct 1
63 °FSunny.No wind70%30.16 "Hg10 mi
9:53 AM61 °FSunny.5 mph72%30.18 "Hg10 mi
8:53 AM58 °FSunny.No wind78%30.18 "Hg10 mi
7:53 AM54 °FSunny.No wind90%30.19 "Hg10 mi
6:53 AM52 °FClear.No wind93%30.19 "Hg10 mi
5:53 AM53 °FClear.5 mph89%30.17 "Hg10 mi
4:53 AM54 °FClear.3 mph90%30.17 "Hg10 mi
3:53 AM54 °FClear.No wind90%30.18 "Hg10 mi
2:53 AM53 °FClear.No wind93%30.19 "Hg10 mi
1:53 AM56 °FClear.3 mph87%30.20 "Hg10 mi
12:53 AM58 °FPassing clouds.No wind81%30.20 "Hg10 mi
11:53 PM
Fri, Sep 30
59 °FOvercast.No wind81%30.21 "Hg10 mi
10:53 PM60 °FClear.No wind75%30.21 "Hg10 mi
9:53 PM62 °FOvercast.9 mph70%30.21 "Hg10 mi
8:53 PM63 °FPassing clouds.9 mph68%30.21 "Hg10 mi
7:53 PM62 °FPassing clouds.No wind75%30.22 "Hg10 mi
6:53 PM66 °FClear.6 mph56%30.21 "Hg10 mi
5:53 PM70 °FSunny.8 mph49%30.21 "Hg10 mi
4:53 PM71 °FSunny.10 mph44%30.22 "Hg10 mi
3:53 PM71 °FPassing clouds.10 mph47%30.23 "Hg10 mi
2:53 PM70 °FSunny.10 mph55%30.26 "Hg10 mi
1:53 PM68 °FSunny.5 mph59%30.29 "Hg10 mi
12:53 PM67 °FSunny.10 mph61%30.32 "Hg10 mi
Weather by CustomWeather, © 2016

See weather overviewHow to use our weather pages